Content
SEND FEEDBACK

Daily
Averages
Monthly
Summary
United States of America

ACHANG BAY, GUAM


Home > North America > United States > Guam
Elevation: 30 feet     Latitude: 13 16N     Longitude: 144 45E

WEATHER
 
SELECT A DAY
Number of Records: 350,199;   Date Range: 1/1/95 - 9/29/14
 
SHARE

PRINT THIS DATA

[ ← Previous Day ]
WEATHER ALMANAC - MAY 21, 2013
[ Next Day → ]
[ °C ]   °F
Weather ElementAverageHighLow
Temperature82 °F86.7 °F (10:55 am)78.3 °F (5:55 am)
Dewpoint74.1 °F75.6 °F (11:55 pm)72.7 °F (3:55 am)
Humidity77.2 %90 % (11:55 pm)65 % (1:55 pm)
Barometer29.88 in29.92 in (9:41 pm)29.82 in (3:55 pm)
Wind Speed10.7 mph13.8 mph (10:55 am)
Wind Gust17.3 mph (2:55 pm)
Weather ElementAverage
Visibility10 mi
Wind DirectionENE (73.8 °)

Weather ElementTotal
Precipitation---
Cooling Degree Days17.5 (Base 65)
Growing Degree Days32.5 (Base 50)
Averaged from 37 records on May 21, 2013
WEATHER CONDITIONS BREAKOUT
WIND DIRECTION BREAKOUT
WEATHER BY HOUR - MAY 21, 2013
[ °C ]   °F
Local TimeTemperatureDewpointHumidityBarometerVisibilityWind DirectionWind SpeedGust SpeedPrecipitationEventsConditions
1:55 AM79.2 °F73.4 °F82 %29.87 in10.0 miEast (80°)9.2 mphPartly Cloudy
2:55 AM78.4 °F73.4 °F84 %29.86 in10.0 miEast (90°)8.1 mphClear
3:55 AM78.6 °F72.7 °F82 %29.86 in10.0 miENE (70°)11.5 mphScattered Clouds
4:55 AM78.4 °F73.4 °F84 %29.86 in10.0 miEast (90°)9.2 mphPartly Cloudy
5:23 AM78.8 °F73.4 °F83 %29.87 in10.0 miEast (80°)11.5 mphLight Drizzle
5:33 AM78.8 °F73.4 °F83 %29.87 in10.0 miEast (80°)10.4 mphClear
5:55 AM78.3 °F73.2 °F84 %29.88 in10.0 miEast (80°)10.4 mph0.00 inPartly Cloudy
6:49 AM80.6 °F73.4 °F79 %29.89 in10.0 miENE (70°)12.7 mphMostly Cloudy
6:55 AM80.8 °F73.6 °F79 %29.90 in10.0 miEast (80°)10.4 mphMostly Cloudy
7:05 AM82.4 °F73.4 °F74 %29.90 in10.0 miENE (60°)10.4 mphScattered Clouds
7:50 AM82.4 °F73.4 °F74 %29.90 in10.0 miENE (70°)10.4 mphMostly Cloudy
7:54 AM82.4 °F73.4 °F74 %29.90 in10.0 miEast (80°)10.4 mphScattered Clouds
7:55 AM83.1 °F74.3 °F75 %29.90 in10.0 miEast (90°)11.5 mphScattered Clouds
8:55 AM84.6 °F73.9 °F70 %29.90 in10.0 miESE (110°)11.5 mphClear
9:55 AM85.6 °F73.2 °F66 %29.89 in10.0 miEast (80°)11.5 mphClear
10:55 AM86.7 °F74.5 °F67 %29.89 in10.0 miEast (80°)13.8 mphPartly Cloudy
11:55 AM86.5 °F74.1 °F66 %29.88 in10.0 miENE (70°)11.5 mphScattered Clouds
12:55 PM85.5 °F73.2 °F67 %29.86 in10.0 miENE (60°)9.2 mphScattered Clouds
1:55 PM86.4 °F73.2 °F65 %29.85 in10.0 miENE (60°)9.2 mphPartly Cloudy
2:42 PM86.0 °F75.2 °F70 %29.83 in10.0 miENE (70°)10.4 mphMostly Cloudy
2:55 PM86.0 °F74.3 °F68 %29.84 in10.0 miENE (70°)10.4 mph17.3 mphMostly Cloudy
3:06 PM86.0 °F73.4 °F66 %29.83 in10.0 miEast (80°)11.5 mphScattered Clouds
3:55 PM85.6 °F73.8 °F67 %29.82 in10.0 miEast (90°)12.7 mphPartly Cloudy
4:55 PM84.7 °F74.5 °F71 %29.83 in10.0 miEast (80°)11.5 mphClear
5:55 PM82.4 °F74.7 °F77 %29.85 in10.0 miEast (80°)10.4 mphPartly Cloudy
6:47 PM80.6 °F75.2 °F84 %29.86 in10.0 miENE (60°)10.4 mphRainLight Rain
6:55 PM81.0 °F74.1 °F80 %29.86 in10.0 miEast (80°)10.4 mph0.00 inRainLight Rain
6:56 PM80.6 °F73.4 °F79 %29.86 in10.0 miEast (80°)10.4 mphPartly Cloudy
7:55 PM80.8 °F74.5 °F81 %29.88 in10.0 miENE (60°)10.4 mphPartly Cloudy
8:55 PM80.6 °F74.5 °F82 %29.91 in10.0 miENE (60°)10.4 mphPartly Cloudy
9:41 PM80.6 °F75.2 °F84 %29.92 in10.0 miENE (70°)9.2 mphMostly Cloudy
9:43 PM80.6 °F75.2 °F84 %29.91 in10.0 miENE (70°)10.4 mphScattered Clouds
9:55 PM80.1 °F74.5 °F83 %29.92 in10.0 miENE (70°)9.2 mphPartly Cloudy
10:47 PM80.6 °F75.2 °F84 %29.92 in10.0 miENE (60°)10.4 mphMostly Cloudy
10:55 PM80.6 °F75.4 °F84 %29.92 in10.0 miNE (50°)12.7 mphMostly Cloudy
11:14 PM80.6 °F75.2 °F84 %29.92 in10.0 miENE (60°)11.5 mphMostly Cloudy
11:55 PM78.8 °F75.6 °F90 %29.91 in10.0 miENE (60°)9.2 mphClear
Hourly data recorded from PGUA, located miles away from Achang Bay, Guam







STORIES FROM OUR PARTNERS